STARLINK-4031 (52679 NORAD) Tracking and Keplerian Element Data

This shows tracking and keplerian element data for the satellite.

Feedback or suggestion? Click here.




ElementValue
Catalog52679
NameSTARLINK-4031
Epoch Orbit130
Epoch Day192.91667824
Epoch Year2022
RAAN28.76
Inclination53.2174
Eccentricity0.0001792
Argument of Perigee36.4784
Mean Anonmoly86.6037
Mean Motion15.53818642
Decay Rate-0.0105947
L11 52679U 22053Z 22192.91667824 -.01059470 00000+0 -17831-1 0 9998
L22 52679 53.2174 28.7600 0001792 36.4784 86.6037 15.53818642 1304

Live tracking and technical data element details for STARLINK-4031 (NORAD 52679). STARLINK-4031 can be tracked NOW for your location showing map with azimuth and elevation plus other details from your city location.

Track the satellite on the map from your city or location and see movement details for azimuth, elevation, latitude, longitude, range, height, and movement on the map or in text.







IsCatalogInMostPopularTable: catalog: 52679, numindb: 7
Update: records affected: 1



GetName: 52679 STARLINK-4031

Hit Count: updated at: Sat, 13 Aug 2022 23:49:18 GMT